Location: Vibo Valentia
(38.6670°N, 16.1000°E)
Time: 10:07:03
(UTC+02:00)

STARLINK-1353 - Pass Details

Date: 02 October 2020
Orbit: 530 x 533 km, 53.0° (Epoch: 22 October)

Event Time Altitude Azimuth Distance (km) Brightness Sun altitude
Exits shadow 05:38:15 12° 319° (NW) 1,675 5.8 -15.3°
Maximum altitude 05:39:50 14° 344° (NNW) 1,545 5.8 -15.0°
Drops below altitude 10° 05:42:00 10° 17° (NNE) 1,786 6.5 -14.6°
Sets 05:45:11 0° 43° (NE) 2,679 8.0 -14.0°
